Location: Arran
(51.9410°N, 101.7372°W)
Time: 07:42:37
(UTC+00:00)

SWISSCUBE - Pass Details

Date: 13 May 2025
Orbit: 685 x 693 km, 98.4° (Epoch: 20 June)

Event Time Altitude Azimuth Distance (km) Brightness Sun altitude
Rises 07:54:01 0° 2° (N) 3,074 ? -17.9°
Reaches altitude 10° 07:57:44 10° 331° (NNW) 2,154 ? -17.7°
Maximum altitude 07:59:23 12° 310° (NW) 2,031 ? -17.7°
Drops below altitude 10° 08:01:02 10° 290° (WNW) 2,151 ? -17.6°
Enters shadow 08:03:38 - 266° (W) 2,728 ? -17.4°
